Uitslag Mr T sporta triathlon Gent top 3

# Naam Totaal
1 (1) Vos Yannick 01:01:07 85.89
2 (2) Hendrickx Kristof 01:01:36 84.29
3 (3) Tilman Nicolas 01:02:26 83.61
4 (4) Van Vooren Brecht 01:02:34 83.50
5 (5) Vanparrys Jano 01:02:47 83.32
6 (6) De Gendt Ruben 01:02:52 83.25
7 (7) Dieussaert Dennis 01:03:50 82.45
8 (8) Kindermans Pieter-jan 01:04:58 81.52
9 (9) Verschueren Thomas 01:05:12 81.33
10 (10) Lievens Filip 01:05:29 81.09
11 (11) De Wannemaeker Nick 01:05:38 80.97
12 (12) Bruyneel Stijn 01:05:51 80.79
13 (13) Lagache Stijn 01:05:52 80.78
14 (14) Meul Matthias 01:05:57 80.71
15 (15) De Dobbelaere Jan 01:06:28 80.28
16 (16) Pauwels Bart 01:06:30 80.26
17 (17) Galle Samuel 01:06:36 80.17
18 (18) Santy Vincent 01:06:41 80.10
19 (19) Heynssens Hans 01:06:52 79.95
20 (20) Vangrunderbeek Seb 01:07:18 79.60
21 (21) De Roo Johannes 01:07:24 79.51
22 (22) Pannecoucke Gilles 01:07:36 79.35
23 (23) De Vriendt Simon 01:07:44 79.24
24 (24) Harinck David 01:07:48 79.18
25 (25) De Meester Wim 01:08:01 79.01
26 (26) Vercarre Jurgen 01:08:05 78.95
27 (27) Brackx Brecht 01:08:25 78.68
28 (28) Van Den Berghe Bjorn 01:08:31 78.59
29 (29) NAUDTS Peter 01:08:37 78.51
30 (30) Delobelle Guillaume 01:08:42 78.44
31 (31) Flott Timothy 01:08:44 78.42
32 (32) Bauwens Nils 01:08:53 78.29
33 (33) Debruyne Frederik 01:08:58 78.22
34 (34) Allebosch Gianni 01:08:59 78.21
35 (35) Van Osselt Thierry 01:09:14 78.00
36 (36) De Wispelaere Luc 01:09:32 77.76
37 (37) Hendrickx Bart 01:09:37 77.69
38 (38) Lycke Stijn 01:09:40 77.65
39 (39) Vercaigne Dieter 01:09:44 77.59
40 (40) Dobbelaere Bert 01:09:46 77.56
41 (41) Wollants Wies 01:09:58 77.40
42 (42) Thai-thuc Yann 01:10:03 77.33
43 (43) De Somviele Bert 01:10:13 77.19
44 (44) Misplon Bert 01:10:18 77.12
45 (45) Dierickx Koen 01:10:27 77.00
46 (47) Decramer Robin 01:10:38 76.85
47 (48) Vanthomme Simon 01:10:44 76.77
48 (49) Van Dyck Peter 01:10:47 76.73
49 (51) Bodere Joachim 01:11:10 76.41
50 (52) Talpe Tony 01:11:10 76.41
51 (54) Roeygens Lodewijk 01:11:30 76.14
52 (55) Juliens Aaron 01:11:36 76.05
53 (56) Ringoot Kevin 01:11:39 76.01
54 (57) Vermeulen Bram 01:11:50 75.86
55 (58) Kuborn Xavier 01:11:53 75.82
56 (59) Van Damme Dennis 01:11:58 75.75
57 (60) De Moor Joachim 01:12:14 75.53
58 (61) Devloo Dries 01:12:16 75.50
59 (62) Haegebaert Robin 01:12:21 75.44
60 (63) Charlet Cedric 01:12:27 75.35
61 (64) Gerlo Joeri 01:12:33 75.27
62 (65) Blondeel Jensen 01:12:36 75.23
63 (66) Van De Velde Stieven 01:12:38 75.20
64 (68) Toch Jonas 01:12:51 75.02
65 (69) Verstraete Pieter 01:13:03 74.86
66 (70) Bauters Jeroen 01:13:07 74.80
67 (72) De Meyer Thomas 01:13:27 74.53
68 (73) Mortier Niek 01:13:30 74.49
69 (74) Ghillebert Stef 01:13:37 74.39
70 (75) Verbeke Bert 01:13:44 74.30
71 (77) Vermote Harm 01:13:50 74.21
72 (78) Uyttershaut Dany 01:13:52 74.19
73 (79) INGELBRECHT NICO 01:13:58 74.10
74 (80) Huysveld Olivier 01:14:10 73.94
75 (81) Van Londersele Sven 01:14:13 73.90
76 (82) Vandenberge Tim 01:14:14 73.88
77 (83) Knoll Bart 01:14:16 73.86
78 (84) Delhaye Cedric 01:14:18 73.83
79 (85) Daeseleire Tim 01:14:20 73.80
80 (88) Vandervorst Tuur 01:14:24 73.75
81 (89) Vanhove Kenneth 01:14:26 73.72
82 (90) Vereertbrugghen Cyriel 01:14:31 73.65
83 (91) Mussche Peter 01:14:35 73.60
84 (92) Clinckaert Michiel 01:14:37 73.57
85 (93) Van Renterghem Pieter 01:14:41 73.51
86 (94) Vlamynck Hans 01:14:49 73.40
87 (97) Harinck Jonas 01:15:10 73.12
88 (98) Rootsaert Arno 01:15:11 73.10
89 (99) De Sloovere Maxim 01:15:19 72.99
90 (100) Andrea Lomazzi 01:15:20 72.98
91 (101) Jaymaert Laurent 01:15:20 72.98
92 (102) Pickavet Mario 01:15:22 72.95
93 (103) Garsbeke August 01:15:24 72.92
94 (104) Neuckermans Bouter 01:15:24 72.92
95 (105) Goethals Willem 01:15:27 72.88
96 (106) Holvoet Pieter 01:15:28 72.87
97 (107) Luyckx Sam 01:15:29 72.86
98 (108) Dhont Christiaan 01:15:30 72.84
99 (109) Blontia Nico 01:15:30 72.84
100 (110) De Gang Jochen 01:15:31 72.83
101 (111) Helderweirt Sander 01:15:32 72.81
102 (112) Elbers Alex 01:15:34 72.79
103 (113) Van Craeynest Kenzo 01:15:39 72.72
104 (114) Van Duerm Herwig 01:15:43 72.66
105 (115) Vanden Broeck Nico 01:15:44 72.65
106 (116) Vanoverschelde Jelle 01:16:00 72.43
107 (117) Nieuwborg Dieter 01:16:02 72.40
108 (118) Vankelecom Pieter 01:16:06 72.35
109 (119) Raman Nick 01:16:13 72.25
110 (120) Vervust Benjamin 01:16:14 72.24
111 (121) Sneijers Ronald 01:16:19 72.17
112 (122) Bruggeman Antoon 01:16:22 72.13
113 (123) Vanhaverbeke Benjamien 01:16:22 72.13
114 (124) Paeleman Joeri 01:16:27 72.06
115 (127) Beerens Steven 01:16:37 71.92
116 (128) De Meyer Tom 01:16:44 71.83
117 (129) Bergsma Benno 01:16:48 71.77
118 (131) Wattez Bart 01:17:00 71.61
119 (132) Vandorpe Tim 01:17:00 71.61
120 (133) Vanduyver Dimitri 01:17:00 71.61
121 (134) De Schepper Jeroen 01:17:14 71.41
122 (135) Martin Yves 01:17:14 71.41
123 (136) Stuyck Luc 01:17:23 71.29
124 (137) Van Wietendaele Ingemar 01:17:24 71.28
125 (138) Boon Dimitri 01:17:25 71.26
126 (139) Tempelaere Brecht 01:17:28 71.22
127 (140) Verhaevert Wiet 01:17:37 71.10
128 (141) Donckels Julien 01:17:37 71.10
129 (142) Coudron Bart 01:17:38 71.08
130 (143) De Schepper Basiel 01:17:46 70.97
131 (144) Braet David 01:17:50 70.92
132 (145) De Ro Wouter 01:17:51 70.91
133 (146) Durabile Valentino 01:17:55 70.85
134 (147) Weyers Filip 01:17:56 70.84
135 (148) Vankelecom Jeroen 01:17:58 70.81
136 (149) Dewulf Christophe 01:18:00 70.78
137 (150) Van De Steene Kurt 01:18:01 70.77
138 (151) Sercu Jeannick 01:18:01 70.77
139 (152) de maeyer jan 01:18:15 70.58
140 (153) Van Haesbroeck Dirk 01:18:24 70.45
141 (154) Strubbe Mathieu 01:18:27 70.41
142 (155) Creelle Stephan 01:18:30 70.37
143 (156) Heyman Olivier 01:18:31 70.36
144 (157) De Venter Miel 01:18:31 70.36
145 (158) Ramboer Filip 01:18:31 70.36
146 (159) Vanhercke Kjartan 01:18:37 70.27
147 (160) Juliens Edwin 01:18:38 70.26
148 (162) De Meyer Tom 01:18:40 70.23
149 (163) Fasseur Frederick 01:18:40 70.23
150 (164) Benjamin Estiévenart 01:18:41 70.22
151 (165) Lamon Bohdan 01:19:02 69.93
152 (166) Cautaerts Jelle 01:19:06 69.88
153 (167) Lannoye Stijn 01:19:08 69.85
154 (168) Van Hecke Peter 01:19:13 69.78
155 (169) Braeckman Bert 01:19:19 69.70
156 (170) Meert Carl 01:19:20 69.68
157 (171) Van Hoorebeke Alain 01:19:21 69.67
158 (172) Ost Jan 01:19:25 69.61
159 (173) Tack Jan 01:19:28 69.57
160 (175) Bettens Ben 01:19:38 69.44
161 (176) Moerenhout Bart 01:19:39 69.42
162 (178) Stobbeleir Erik 01:19:47 69.31
163 (179) Droesbeke Nico 01:19:53 69.23
164 (182) Van Aertselaere Tonny 01:20:00 69.13
165 (183) Daelemans Wout 01:20:01 69.12
166 (186) De Schrijver Jeroen 01:20:16 68.91
167 (189) De Coeyer Nico 01:20:27 68.76
168 (190) Van Der Stede Thibaux 01:20:33 68.68
169 (191) Meyvis Jan 01:20:35 68.65
170 (192) Bruneel Kennith 01:20:40 68.59
171 (193) Toebat Andrew 01:20:45 68.52
172 (195) Willemyns Luc 01:20:51 68.43
173 (196) De Craene Benjamin 01:20:52 68.42
174 (197) Ronsmans Tim 01:20:53 68.41
175 (198) D'haene Kurt 01:20:54 68.39
176 (200) Van Vooren Jan 01:20:57 68.35
177 (201) De Smet Kevin 01:21:00 68.31
178 (202) Van Branden Serge 01:21:01 68.30
179 (204) Vlamijnck Yves 01:21:06 68.23
180 (205) Van Eenooghe Willem 01:21:09 68.19
181 (206) De Wolf Sven 01:21:09 68.19
182 (208) Slock Thomas 01:21:14 68.12
183 (209) Van Hyfte Maarten 01:21:15 68.10
184 (210) Niesten Jelle 01:21:15 68.10
185 (211) Decoene Jan 01:21:21 68.02
186 (212) Mettepenningen Bruno 01:21:21 68.02
187 (213) De Vreese Patrik 01:21:23 67.99
188 (214) Torbeyns Jo 01:21:25 67.97
189 (215) Delhaye Luc 01:21:30 67.90
190 (216) Gyselinck Johan 01:21:35 67.83
191 (217) Van De Gender Steven 01:21:37 67.80
192 (218) De Ridder Kris 01:21:40 67.76
193 (219) Vanderper Bregt 01:21:41 67.75
194 (220) Elleboudt Nicolas 01:21:43 67.72
195 (221) Rombout Patrick 01:21:48 67.65
196 (222) Van Hamme Kurt 01:21:50 67.62
197 (224) Parmentier Karel 01:21:56 67.54
198 (227) D'Hondt Kris 01:21:59 67.50
199 (228) Desimpelaere Andy 01:22:00 67.49
200 (229) Poot Manuel 01:22:01 67.47
201 (230) Mannaert Kristof 01:22:02 67.46
202 (231) Van Haelter Dirk 01:22:02 67.46
203 (232) De Kesel Jos 01:22:05 67.42
204 (233) Decoodt Wim 01:22:06 67.40
205 (234) Claeys Tom 01:22:08 67.38
206 (235) Malfait Mathias 01:22:16 67.27
207 (236) Tytgat Benjamin 01:22:18 67.24
208 (237) Vandeghinste Sam 01:22:24 67.16
209 (239) Peleman Philippe 01:22:32 67.05
210 (240) Van Hecke Reinhard 01:22:34 67.02
211 (242) Smret Diego 01:22:37 66.98
212 (243) Eyckerman Rob 01:22:38 66.96
213 (244) Vandoorn Winny 01:22:39 66.95
214 (245) Nevejans Pieter 01:22:40 66.94
215 (247) Vermeiren Vadim 01:22:48 66.83
216 (248) Fornier Wouter 01:22:56 66.72
217 (249) De Smet Filip 01:22:58 66.69
218 (250) Lindemans Lukas 01:23:02 66.64
219 (251) Derudder Mark 01:23:06 66.58
220 (253) Bardyn Dieter 01:23:11 66.51
221 (254) Ameye Koen 01:23:15 66.46
222 (258) Devloo Stefaan 01:23:19 66.40
223 (259) Goh Kester 01:23:27 66.29
224 (260) De Bisschop Jan 01:23:30 66.25
225 (263) Braekeveldt Bart 01:23:41 66.10
226 (264) De Vidts Bart 01:23:44 66.06
227 (265) Derycke Jeroen 01:23:45 66.05
228 (266) Durieux Jeroen 01:23:49 65.99
229 (267) Demeulemeester Nico 01:23:53 65.94
230 (268) Van Nieuwenhove Laurent 01:23:56 65.89
231 (271) Giacomo Padovan 01:24:09 65.72
232 (272) Roggeman Johan 01:24:12 65.67
233 (273) Nelis Kristof 01:24:14 65.65
234 (274) Schrurs Bart 01:24:15 65.63
235 (275) Matthys Johan 01:24:16 65.62
236 (276) Frank Damman 01:24:16 65.62
237 (278) Van De Graaf Thijs 01:24:19 65.58
238 (280) Laruelle Jürgen 01:24:24 65.51
239 (281) Vanderhaeghe Dries 01:24:30 65.43
240 (284) Fornier Stijn 01:24:40 65.29
241 (285) Adriaenssens Lorenzo 01:24:42 65.26
242 (286) Provoost Geert 01:24:43 65.25
243 (287) Raymaekers Peter 01:24:46 65.21
244 (289) Devos Kevin 01:24:49 65.17
245 (292) De Pelsmaeker Ben 01:24:53 65.11
246 (293) Vanpraet Jan 01:24:54 65.10
247 (294) Van Helleputte Christophe 01:24:55 65.08
248 (295) Verthongen Yannick 01:24:56 65.07
249 (296) Gheysen Kris 01:24:56 65.07
250 (297) Meert Bart 01:25:03 64.97
251 (299) Versyp Merlijn 01:25:09 64.89
252 (300) Van Damme Nicolas 01:25:12 64.85
253 (302) Pinto Timothy 01:25:16 64.80
254 (303) Beeckman Gert 01:25:17 64.78
255 (306) Rombaut Paul 01:25:21 64.73
256 (307) Daem Valentijn 01:25:25 64.67
257 (308) Van Mulders Jan 01:25:31 64.59
258 (309) Carbonez Jeroen 01:25:34 64.55
259 (310) Dupont Dominique 01:25:43 64.43
260 (312) Lips Johannes 01:25:45 64.40
261 (313) Baetens Reinout 01:25:53 64.29
262 (314) Van Kerrebrouck Jurgen 01:25:57 64.23
263 (315) Lansens Michael 01:25:58 64.22
264 (318) Van Moldergem Jurgen 01:26:08 64.08
265 (319) Van Hauwermeiren Thomas 01:26:09 64.07
266 (320) Deleu Peter 01:26:13 64.01
267 (323) Goossens Davy 01:26:18 63.94
268 (326) Paz Sagues Pablo 01:26:26 63.83
269 (328) Groothaerd Jurgen 01:26:27 63.82
270 (329) D'hooge Michael 01:26:33 63.74
271 (330) Dermul Bart 01:26:35 63.71
272 (331) De Buysser Frederik 01:26:38 63.67
273 (332) Vandeputte Olivier 01:26:42 63.61
274 (333) Verdonck Dries 01:26:48 63.53
275 (334) Vanderbeke Steven 01:26:49 63.52
276 (335) Vandevondele Joris 01:26:49 63.52
277 (338) Moreau Rene 01:26:58 63.40
278 (339) Soenen Björn 01:27:00 63.37
279 (340) Van De Velde Ruben 01:27:02 63.34
280 (344) Missant Bart 01:27:12 63.20
281 (345) Aubrey Alastair 01:27:20 63.09
282 (347) Verthé Pascal 01:27:23 63.05
283 (348) deweerdt karel 01:27:25 63.02
284 (349) De Vleeschhouwer Freek 01:27:28 62.98
285 (350) De Venter Rein 01:27:28 62.98
286 (352) Van Der Beken Davy 01:27:39 62.83
287 (356) Bogaert Maarten 01:27:44 62.76
288 (358) Vanhoutte Bart 01:27:51 62.67
289 (359) Evenepoel Jan 01:27:52 62.65
290 (360) Cogghe Frank 01:27:53 62.64
291 (362) Vanhoucke Steve 01:28:04 62.49
292 (363) Cludts Alain 01:28:04 62.49
293 (364) De Coen Achim 01:28:07 62.45
294 (365) Lavrysen Laurens 01:28:08 62.43
295 (366) De Vuyst Jos 01:28:09 62.42
296 (367) De Volder Ronny 01:28:09 62.42
297 (368) Galens Steven 01:28:11 62.39
298 (369) Devos Andreas 01:28:14 62.35
299 (370) Wattez Tom 01:28:17 62.31
300 (371) Van Hende Iwan 01:28:21 62.26
301 (372) Viaene Pierre-adrien 01:28:23 62.23
302 (374) Masscho Francis 01:28:31 62.12
303 (376) Calu Hans 01:28:36 62.05
304 (377) Goeminne Gert 01:28:36 62.05
305 (380) Van Parijs Matisse 01:28:47 61.90
306 (383) Guiot Francois-xavier 01:28:55 61.79
307 (386) Arnout Roosen 01:29:07 61.62
308 (387) Van Gasse Bart 01:29:09 61.60
309 (392) Planckaert Thijs 01:29:36 61.23
310 (393) Van Bellingen Stefan 01:29:41 61.16
311 (395) Van Laere Peter 01:29:49 61.05
312 (396) Van Biesen Andy 01:29:49 61.05
313 (397) Vercruysse Marc 01:29:51 61.02
314 (398) Van Acker Roel 01:29:56 60.95
315 (399) Van Ryssel Manon 01:30:10 60.76
316 (401) beurms simon 01:30:17 60.66
317 (402) Van Hooreweghe Servaas 01:30:28 60.51
318 (403) Van Den Bogaert Thomas 01:30:29 60.50
319 (404) Lips Bart 01:30:30 60.48
320 (405) Pouillie Brecht 01:30:36 60.40
321 (406) Donné Simon 01:30:40 60.35
322 (407) Vermaercke Thomas 01:30:43 60.31
323 (410) Loyen Pascal 01:30:51 60.20
324 (412) Vanhoegaarden Thierry 01:30:58 60.10
325 (415) Aertsen Peter 01:31:03 60.03
326 (420) Deman Fabian 01:31:13 59.89
327 (426) Volckaert Lieven 01:31:44 59.47
328 (428) Aps Jan 01:31:54 59.33
329 (429) Van Renterghem Peter 01:31:56 59.30
330 (430) Decock Wim 01:31:59 59.26
331 (431) Naessens Tim 01:32:00 59.25
332 (432) Verhelle Adriaan 01:32:01 59.24
333 (434) Depaepe Daan 01:32:04 59.19
334 (435) VERSCHUERE Dominique 01:32:06 59.17
335 (436) Devos Kenneth 01:32:10 59.11
336 (440) Olivier Steven 01:32:34 58.78
337 (441) D'haenens Stefaan 01:32:37 58.74
338 (442) Weidener Tim 01:32:41 58.69
339 (444) Lampaert Laurent 01:32:44 58.64
340 (445) Heymans Niels 01:33:00 58.43
341 (447) Reynaert Youri 01:33:09 58.30
342 (448) Van Slycken Steven 01:33:13 58.25
343 (451) De Laere Peter 01:33:22 58.12
344 (452) Verstraete Filip 01:33:23 58.11
345 (458) Lips Koen 01:33:47 57.78
346 (460) Van Der Poel Joannes 01:33:49 57.75
347 (461) Van Over Scheldt Reinhold 01:33:58 57.63
348 (464) Azhar Wasim 01:34:00 57.60
349 (465) Chapanov Stanil 01:34:03 57.56
350 (467) Neutens Tom 01:34:25 57.26
351 (468) Simoen Frederik 01:34:31 57.18
352 (471) D'hondt Björn 01:34:52 56.89
353 (473) Bovijn Joris 01:34:58 56.81
354 (474) Van Hecke Wim 01:35:04 56.72
355 (477) T Kindt Tony 01:35:09 56.65
356 (479) Van Autreve Boudewijn 01:35:14 56.59
357 (482) De Wannemaeker Bruno 01:35:19 56.52
358 (483) Velghe Frederik 01:35:23 56.46
359 (486) Leytens Piet 01:35:33 56.32
360 (487) Claus Dirk 01:35:34 56.31
361 (490) Wallays Carlos 01:36:04 55.90
362 (492) Youssef Emine 01:36:17 55.72
363 (493) Van Den Neucker Luc 01:36:17 55.72
364 (497) De Rouck Chris 01:36:59 55.14
365 (498) Quatacker Bert 01:37:00 55.13
366 (500) Antonio Ribeiro Alves Junior 01:37:17 54.90
367 (501) Remmerie Filip 01:37:25 54.79
368 (502) Coene Philippe 01:37:34 54.66
369 (504) Vanlooy Noël 01:37:49 54.46
370 (505) Landuyt Kurt 01:37:49 54.46
371 (508) Devos Wim 01:38:12 54.14
372 (510) Pot Emil 01:38:32 53.87
373 (513) Vanwildemeersch Daan 01:38:47 53.66
374 (514) Goegebuer Carolien 01:39:00 53.48
375 (517) De Coninck Joris 01:39:30 53.07
376 (524) Bardyn Laurens 01:40:07 52.56
377 (528) Dagrir Cyril 01:40:29 52.26
378 (534) De Rijck Ronny 01:40:49 51.99
379 (536) Vanderheijden Matthias 01:41:15 51.63
380 (543) Verbeke Aline 01:41:49 51.16
381 (544) D'hulster Ward 01:41:57 51.05
382 (548) Delaere Nils 01:42:24 50.68
383 (553) Peeters Jeroen 01:43:06 50.10
384 (554) De Bruyne Geert 01:43:13 50.01
385 (555) Dooms Levi 01:43:25 49.84
386 (556) Vochten Stijn 01:43:30 49.78
387 (558) Nicolay Bram 01:43:52 49.47
388 (564) Degrande Peter 01:44:28 48.98
389 (566) De Boever Philippe 01:44:35 48.88
390 (568) Van Den Bossche Koen 01:44:47 48.72
391 (569) De Poorter Peter 01:44:56 48.59
392 (577) Lasonder Guido 01:45:34 48.07
393 (579) Messiaen Vincent 01:45:42 47.96
394 (580) Thys Karel 01:45:49 47.87
395 (583) Vervecken Jan 01:46:09 47.59
396 (588) Nijsten Wim 01:46:48 47.06
397 (602) De Kegel Stijn 01:51:22 43.30
398 (603) Falcone Laurent 01:51:23 43.28
399 (608) D'hont Jean 01:53:37 41.44
400 (616) Rigot Kevin 01:56:16 39.26
401 (617) Meul Marjorie 01:57:03 0.00
402 (619) Micholt Alex 01:57:23 38.34
403 (625) Vanvinckenroye Wouter 02:03:08 33.60
404 (627) Musch Philippe 02:03:38 32.69

Reacties

  • Nog geen reacties beschikbaar